Simultaneous Nadir Overpasses (SNOs) Predictions

Prediction of SNOs between GOES-14 and NPP Satellite Orbit:

Table of predicted SNOs for the next 14.0 days since TLE Epoch: 3/12/2022
Index Date Time (GOES-14) GOES-14 Lat,Lon NPP Lat,Lon Distance(km) Time Diff (sec)
1 03/14/2022 08:24:09 0.10,-104.58 0.19,-105.02 50.49 80
2 03/15/2022 08:08:04 0.10,-104.58 -0.83,-100.50 466.46 80
3 03/16/2022 20:29:59 -0.10,-104.43 -0.41,-105.79 155.27 80
4 03/17/2022 20:08:35 -0.10,-104.42 0.62,-101.26 360.08 80
5 03/19/2022 08:30:23 0.10,-104.56 0.53,-106.54 224.79 80
6 03/20/2022 08:14:19 0.10,-104.57 -0.49,-102.01 292.28 80
7 03/21/2022 20:36:14 -0.10,-104.43 -0.74,-107.30 326.65 80
8 03/22/2022 20:14:50 -0.10,-104.42 0.29,-102.77 188.40 80
9 03/24/2022 08:36:37 0.10,-104.53 0.91,-108.04 400.18 80
10 03/25/2022 08:20:32 0.11,-104.53 -0.11,-103.51 116.52 80
